Back to catalog

COSMOS 252 DEB

AliveLEO
NORAD 9973·DEBRIS·🇷🇺 Russia

Launched Nov 1, 1968 from Baikonur Cosmodrome

Loading…

Next Passes (next 24 hours)

TLE

FreshSource: Space-Track

Epoch: Sep 14, 2026, 01:58 UTC

1 09973U 68097DV  26257.08233296  .00000612  00000-0  25219-3 0  9994
2 09973  62.4081 149.5211 0558771 270.0098  83.6938 13.73601430 43005

Track COSMOS 252 DEB in real time with AllMySat

Download on the App Store